| time (UTC) | temp F | wind direction | speed MPH | gust MPH | rain 1hr in | rain 24hr in | rain mn in | humidity % | barometer mb |
| 20260505073037 | 44 | 355 | 0.0 | 5.0 | 0.00 | 0.15 | 0.00 | 79 | 1006.4 |
| 20260505071535 | 44 | 333 | 0.0 | 3.0 | 0.00 | 0.15 | 0.00 | 79 | 1006.5 |
| 20260505070041 | 44 | 333 | 0.0 | 2.0 | 0.00 | 0.15 | 0.00 | 79 | 1006.0 |
| 20260505064530 | 44 | 333 | 1.0 | 6.0 | 0.00 | 0.15 | 0.15 | 79 | 1005.8 |
| 20260505063033 | 44 | 336 | 2.0 | 7.0 | 0.00 | 0.15 | 0.15 | 78 | 1005.2 |
| 20260505061528 | 44 | 23 | 1.0 | 4.0 | 0.00 | 0.15 | 0.15 | 78 | 1005.2 |
| 20260505060035 | 44 | 24 | 0.0 | 6.0 | 0.00 | 0.15 | 0.15 | 79 | 1004.9 |
| 20260505054527 | 44 | 46 | 0.0 | 3.0 | 0.00 | 0.15 | 0.15 | 78 | 1005.2 |
| 20260505053032 | 45 | 47 | 2.0 | 7.0 | 0.00 | 0.15 | 0.15 | 78 | 1005.2 |
| 20260505051524 | 45 | 40 | 0.0 | 3.0 | 0.00 | 0.15 | 0.15 | 78 | 1005.6 |
| 20260505041520 | 44 | 173 | 1.0 | 4.0 | 0.03 | 0.15 | 0.15 | 79 | 1004.9 |
| 20260505040018 | 44 | 176 | 0.0 | 6.0 | 0.06 | 0.15 | 0.15 | 81 | 1005.1 |
| 20260505034523 | 45 | 176 | 0.0 | 7.0 | 0.09 | 0.15 | 0.15 | 80 | 1004.9 |
| 20260505033017 | 46 | 32 | 0.0 | 7.0 | 0.08 | 0.14 | 0.14 | 77 | 1004.1 |
| 20260505031517 | 46 | 32 | 0.0 | 4.0 | 0.06 | 0.12 | 0.12 | 76 | 1004.9 |
| 20260505030016 | 45 | 32 | 2.0 | 9.0 | 0.03 | 0.09 | 0.09 | 77 | 1004.6 |
| 20260505024515 | 45 | 155 | 0.0 | 3.0 | 0.00 | 0.07 | 0.06 | 81 | 1005.0 |
| 20260505023014 | 44 | 156 | 1.0 | 8.0 | 0.05 | 0.07 | 0.06 | 82 | 1004.0 |
| 20260505021512 | 46 | 158 | 3.0 | 8.0 | 0.05 | 0.07 | 0.06 | 80 | 1003.5 |
| 20260505020013 | 46 | 136 | 2.0 | 10.0 | 0.05 | 0.07 | 0.06 | 78 | 1003.2 |
| 20260505014510 | 47 | 126 | 0.0 | 5.0 | 0.06 | 0.07 | 0.06 | 78 | 1003.6 |
| 20260505013009 | 47 | 44 | 4.0 | 10.0 | 0.01 | 0.02 | 0.01 | 80 | 1004.9 |
| 20260505011507 | 47 | 350 | 4.0 | 11.0 | 0.01 | 0.02 | 0.01 | 80 | 1004.8 |
| 20260505010014 | 49 | 14 | 5.0 | 13.0 | 0.01 | 0.02 | 0.01 | 80 | 1004.4 |
| 20260505004507 | 52 | 323 | 7.0 | 12.0 | 0.00 | 0.01 | 0.00 | 76 | 1004.3 |
| 20260505003006 | 55 | 302 | 2.0 | 10.0 | 0.00 | 0.01 | 0.00 | 68 | 1003.7 |
| 20260505001508 | 56 | 35 | 0.0 | 6.0 | 0.00 | 0.01 | 0.00 | 61 | 1003.0 |
| 20260505000005 | 56 | 38 | 2.0 | 10.0 | 0.00 | 0.01 | 0.00 | 62 | 1002.7 |
| 20260504234506 | 56 | 350 | 5.0 | 14.0 | 0.00 | 0.01 | 0.00 | 63 | 1002.8 |
| 20260504233004 | 59 | 178 | 0.0 | 3.0 | 0.00 | 0.01 | 0.00 | 56 | 1002.8 |
| 20260504231504 | 59 | 146 | 1.0 | 7.0 | 0.00 | 0.01 | 0.00 | 57 | 1002.4 |
| 20260504230002 | 59 | 154 | 4.0 | 12.0 | 0.00 | 0.01 | 0.00 | 57 | 1002.8 |
| 20260504224600 | 60 | 161 | 3.0 | 11.0 | 0.00 | 0.01 | 0.00 | 56 | 1003.1 |
| 20260504223058 | 59 | 338 | 2.0 | 6.0 | 0.00 | 0.01 | 0.00 | 58 | 1003.0 |
| 20260504221558 | 59 | 338 | 3.0 | 7.0 | 0.00 | 0.01 | 0.00 | 60 | 1003.1 |
| 20260504220053 | 58 | 350 | 0.0 | 8.0 | 0.00 | 0.01 | 0.00 | 64 | 1003.0 |
| 20260504214550 | 57 | 34 | 1.0 | 5.0 | 0.00 | 0.01 | 0.00 | 69 | 1003.1 |
| 20260504213050 | 56 | 28 | 5.0 | 9.0 | 0.00 | 0.01 | 0.00 | 70 | 1003.7 |
| 20260504211547 | 56 | 30 | 0.0 | 3.0 | 0.00 | 0.01 | 0.00 | 75 | 1003.9 |
| 20260504210043 | 55 | 20 | 0.0 | 4.0 | 0.00 | 0.01 | 0.00 | 76 | 1003.8 |
| 20260504204539 | 53 | 15 | 1.0 | 8.0 | 0.00 | 0.01 | 0.00 | 78 | 1003.9 |
| 20260504203044 | 52 | 339 | 5.0 | 11.0 | 0.00 | 0.01 | 0.00 | 80 | 1003.8 |
| 20260504201537 | 52 | 9 | 2.0 | 8.0 | 0.00 | 0.01 | 0.00 | 72 | 1004.6 |
| 20260504200035 | 53 | 342 | 1.0 | 6.0 | 0.00 | 0.01 | 0.00 | 76 | 1003.7 |
| 20260504194535 | 52 | 343 | 2.0 | 6.0 | 0.00 | 0.01 | 0.00 | 78 | 1004.1 |
| 20260504193035 | 52 | 344 | 3.0 | 7.0 | 0.00 | 0.01 | 0.00 | 79 | 1004.1 |
| 20260504191534 | 52 | 349 | 3.0 | 7.0 | 0.00 | 0.01 | 0.00 | 79 | 1004.4 |
| 20260504190034 | 52 | 321 | 1.0 | 7.0 | 0.00 | 0.01 | 0.00 | 78 | 1004.2 |
| 20260504184532 | 52 | 318 | 3.0 | 9.0 | 0.00 | 0.01 | 0.00 | 78 | 1004.2 |
| 20260504183032 | 53 | 130 | 0.0 | 5.0 | 0.00 | 0.01 | 0.00 | 75 | 1004.1 |
| 20260504181531 | 52 | 130 | 0.0 | 4.0 | 0.00 | 0.01 | 0.00 | 75 | 1004.0 |
| 20260504180030 | 52 | 130 | 0.0 | 4.0 | 0.00 | 0.01 | 0.00 | 78 | 1004.1 |
| 20260504174529 | 51 | 130 | 0.0 | 1.0 | 0.00 | 0.01 | 0.00 | 81 | 1004.1 |
| 20260504173029 | 50 | 130 | 0.0 | 1.0 | 0.00 | 0.01 | 0.00 | 80 | 1004.4 |
| 20260504171542 | 50 | 130 | 0.0 | 4.0 | 0.00 | 0.01 | 0.00 | 80 | 1004.2 |
| 20260504081534 | 48 | 360 | 0.0 | 5.0 | 0.00 | 0.01 | 0.00 | 68 | 1004.3 |